This is the latest recevied weather packets stored in our database for station/object N5GMJ. If no packets are shown the sender has not sent any weather packets the latest 10 day(s).
| Time | Temp. | Humidity | Pressure | Rain* | Wind** | Luminosity | Snow |
|---|---|---|---|---|---|---|---|
| 1777314975 | 32.22° C | 49% | 1009.5 hPa | 0 mm | - | - | - |
| 1777314670 | 31.67° C | 55% | 1009.9 hPa | 0 mm | - | - | - |
| 1777314367 | 31.67° C | 47% | 1009.7 hPa | 0 mm | - | - | - |
| 1777314064 | 32.22° C | 46% | 1009.7 hPa | 0 mm | - | - | - |
| 1777313762 | 32.22° C | 46% | 1009.7 hPa | 0 mm | - | - | - |
| 1777313459 | 32.78° C | 50% | 1009.9 hPa | 0 mm | - | - | - |
| 1777313156 | 32.22° C | 57% | 1009.9 hPa | 0 mm | - | - | - |
| 1777312852 | 32.22° C | 50% | 1009.8 hPa | 0 mm | - | - | - |
| 1777312549 | 31.67° C | 51% | 1010 hPa | 0 mm | - | - | - |
| 1777312246 | 31.11° C | 52% | 1009.8 hPa | 0 mm | - | - | - |
| 1777311943 | 31.11° C | 52% | 1010 hPa | 0 mm | - | - | - |
| 1777311640 | 31.11° C | 50% | 1009.8 hPa | 0 mm | - | - | - |
| 1777311338 | 31.11° C | 51% | 1009.9 hPa | 0 mm | - | - | - |
| 1777311035 | 31.11° C | 55% | 1009.7 hPa | 0 mm | - | - | - |
| 1777310733 | 31.11° C | 52% | 1010 hPa | 0 mm | - | - | - |
| 1777310430 | 31.11° C | 53% | 1009.9 hPa | 0 mm | - | - | - |
| 1777310127 | 31.11° C | 52% | 1009.9 hPa | 0 mm | - | - | - |
| 1777309824 | 30.56° C | 51% | 1010 hPa | 0 mm | - | - | - |
| 1777309522 | 30.56° C | 56% | 1010 hPa | 0 mm | - | - | - |
| 1777309219 | 31.11° C | 58% | 1009.8 hPa | 0 mm | - | - | - |
| 1777308917 | 30.56° C | 57% | 1009.8 hPa | 0 mm | - | - | - |
| 1777308612 | 30.56° C | 60% | 1009.9 hPa | 0 mm | - | - | - |
| 1777308308 | 30.56° C | 59% | 1009.9 hPa | 0 mm | - | - | - |
| 1777308003 | 30° C | 59% | 1009.9 hPa | 0 mm | - | - | - |
| 1777307702 | 30° C | 61% | 1009.8 hPa | 0 mm | - | - | - |
* Rain latest hour (hover to see other rain measurements)
** Current wind speed in m/s (hover to see current wind gust speed)